Location: Bannatyne
(13.0833°N, 59.5333°W)
Time: 03:49:50
(UTC+00:00)

Vanguard 3 - Pass Details

Date: 28 January 2020
Orbit: 508 x 3263 km, 33.3° (Epoch: 18 February)

Event Time Altitude Azimuth Distance (km) Brightness Sun altitude
Rises 02:31:39 0° 304° (NW) 6,750 12.1 -65.6°
Reaches altitude 10° 02:36:50 10° 308° (NW) 5,392 11.4 -66.8°
Enters shadow 02:39:40 17° 310° (NW) 4,626 11.0 -67.4°
Maximum altitude 02:51:15 60° 25° (NNE) 1,961 - -70.1°
Drops below altitude 10° 02:59:14 10° 103° (ESE) 3,126 - -72.0°
Sets 03:01:27 0° 108° (ESE) 3,821 - -72.5°
